Location: Aalsum
(53.3404°N, 6.0062°E)
Time: 05:25:55
(UTC+00:00)

COSMOS 2455 - Pass Details

Date: 28 January 2023
Orbit: 898 x 911 km, 67.1° (Epoch: 24 March)

Event Time Altitude Azimuth Distance (km) Brightness Sun altitude
Rises 18:15:53 0° 215° (SW) 3,515 6.5 -18.4°
Reaches altitude 10° 18:18:22 10° 215° (SW) 2,580 5.8 -18.8°
Maximum altitude 18:24:22 85° 128° (SE) 916 2.8 -19.7°
Enters shadow 18:28:07 25° 41° (NE) 1,767 4.0 -20.2°
